STARLINK-4535 (53392 NORAD) Tracking and Keplerian Element Data

This shows tracking and keplerian element data for the satellite.

Feedback or suggestion? Click here.




ElementValue
Catalog53392
NameSTARLINK-4535
Epoch Orbit1618
Epoch Day325.19557778
Epoch Year2022
RAAN131.3147
Inclination53.2168
Eccentricity0.0002293
Argument of Perigee40.4651
Mean Anonmoly319.6511
Mean Motion15.08846887
Decay Rate0.00012528
L11 53392U 22097E 22325.19557778 .00012528 00000+0 80367-3 0 9999
L22 53392 53.2168 131.3147 0002293 40.4651 319.6511 15.08846887 16182



Live tracking and technical data element details for STARLINK-4535 (NORAD 53392). STARLINK-4535 can be tracked NOW for your location showing map with azimuth and elevation plus other details from your city location.







IsCatalogInMostPopularTable: catalog: 53392, numindb: 5
Update: records affected: 1



GetName: 53392 STARLINK-4535

Hit Count: updated at: Tue, 29 Nov 2022 02:13:24 GMT